Location: Saint Louis
(38.6272°N, 90.1978°W)
Time: 06:55:21
(UTC-05:00)

Hubble Space Telescope - Visible Passes

Search period start: 30 August 2015 00:00
Search period end: 09 September 2015 00:00
Orbit: 541 x 545 km, 28.5° (Epoch: 29 August)

Date Brightness Start Highest point End Pass type
(mag) Time Alt. Az. Time Alt. Az. Time Alt. Az.
05 Sep 3.2 04:44:50 11° SSE 04:44:50 11° SSE 04:46:12 10° SE visible
06 Sep 3.1 04:36:25 13° SSE 04:36:25 13° SSE 04:37:47 10° SE visible
07 Sep 3.2 04:28:00 13° SE 04:28:00 13° SE 04:29:06 10° SE visible
07 Sep 2.6 06:04:15 10° SW 06:07:18 20° S 06:10:22 10° SE visible
08 Sep 3.3 04:19:35 13° SE 04:19:35 13° SE 04:20:17 10° SE visible
08 Sep 2.6 05:55:13 10° SW 05:58:16 20° S 06:01:17 10° SE visible
